RADUGA 23 [-]

Last updated on Jan. 23, 2021, 7:21 a.m. UTC

1 19928U 89030A   21022.80092012 -.00000365  00000-0  00000-0 0  9993
2 19928  14.0173 347.0279 0018032 143.6479  39.4049  1.00274869115088
UTC
Height (km)
Latitude
Longitude
Inclination
Orbital Period
UTC large
Height (km)
Speed (km/s)
/
Latitude / Longitude
Inclination (degrees)
Orbital Period (minutes)
Azimuth
Elevation
Range (km)
Doppler Factor
iOS Compass Heading
iOS Angle

Next 30 passes for location: Hong Kong

Rise time Rise Azimuth (degrees) Set time Set Azimuth (degrees) Duration Max altitude (degrees)

No matching passes for this satellites